TimeEST,TemperatureF,Dew PointF,Humidity,Sea Level PressureIn,VisibilityMPH,Wind Direction,Wind SpeedMPH,Gust SpeedMPH,PrecipitationIn,Events,Conditions,WindDirDegrees,DateUTC
12:15 AM,51.8,44.6,76,30.29,10.0,NNE,3.5,-,N/A,,Clear,30,2012-11-15 05:15:00
12:35 AM,51.8,44.6,76,30.27,10.0,NNE,3.5,-,N/A,,Clear,30,2012-11-15 05:35:00
1:15 AM,51.8,44.6,76,30.26,10.0,NE,3.5,-,N/A,,Clear,40,2012-11-15 06:15:00
1:35 AM,51.8,44.6,76,30.26,10.0,NNE,4.6,-,N/A,,Clear,20,2012-11-15 06:35:00
1:55 AM,51.8,44.6,76,30.25,10.0,NNE,4.6,-,N/A,,Clear,20,2012-11-15 06:55:00
2:15 AM,50.0,44.6,82,30.25,10.0,NNE,6.9,-,N/A,,Clear,20,2012-11-15 07:15:00
2:35 AM,50.0,44.6,82,30.24,10.0,NNE,9.2,-,N/A,Rain,Light Rain,20,2012-11-15 07:35:00
2:55 AM,50.0,44.6,82,30.24,10.0,North,6.9,-,N/A,Rain,Light Rain,10,2012-11-15 07:55:00
3:15 AM,50.0,44.6,82,30.23,10.0,NNE,8.1,-,N/A,,Clear,20,2012-11-15 08:15:00
3:35 AM,50.0,44.6,82,30.22,10.0,North,4.6,-,N/A,,Light Drizzle,10,2012-11-15 08:35:00
3:55 AM,48.2,44.6,87,30.22,10.0,North,4.6,-,N/A,,Light Drizzle,350,2012-11-15 08:55:00
4:15 AM,48.2,44.6,87,30.22,10.0,North,3.5,-,N/A,,Light Drizzle,10,2012-11-15 09:15:00
4:35 AM,48.2,42.8,82,30.21,10.0,North,5.8,-,N/A,,Clear,360,2012-11-15 09:35:00
4:55 AM,46.4,44.6,93,30.21,7.0,NNE,11.5,-,N/A,,Drizzle,20,2012-11-15 09:55:00
5:15 AM,46.4,44.6,93,30.20,5.0,North,6.9,-,N/A,,Drizzle,360,2012-11-15 10:15:00
5:35 AM,46.4,46.4,100,30.25,7.0,West,11.5,-,N/A,,Clear,270,2012-11-15 10:35:00
5:55 AM,44.6,44.6,100,30.27,4.0,WNW,10.4,17.3,0.01,Rain-Thunderstorm,Rain,300,2012-11-15 10:55:00
6:15 AM,44.6,44.6,100,30.26,4.0,NW,11.5,-,0.02,Rain,Heavy Rain,320,2012-11-15 11:15:00
6:35 AM,44.6,44.6,100,30.26,7.0,NW,5.8,18.4,0.02,,Drizzle,320,2012-11-15 11:35:00
6:55 AM,44.6,44.6,100,30.26,7.0,North,6.9,-,0.03,,Drizzle,350,2012-11-15 11:55:00
7:15 AM,44.6,44.6,100,30.28,7.0,WNW,12.7,18.4,0.02,Rain-Thunderstorm,Rain,300,2012-11-15 12:15:00
7:35 AM,42.8,42.8,100,30.29,7.0,NNW,11.5,20.7,0.02,Rain,Light Rain,330,2012-11-15 12:35:00
7:55 AM,42.8,42.8,100,30.30,5.0,NW,10.4,-,0.04,Rain,Rain,320,2012-11-15 12:55:00
8:15 AM,42.8,42.8,100,30.33,7.0,West,16.1,21.9,0.01,Rain,Rain,280,2012-11-15 13:15:00
8:35 AM,42.8,42.8,100,30.28,0.8,NE,13.8,19.6,0.14,,Unknown,50,2012-11-15 13:35:00
8:55 AM,44.6,44.6,100,30.28,4.0,North,3.5,-,0.21,Rain,Rain,350,2012-11-15 13:55:00
9:15 AM,44.6,44.6,100,30.29,5.0,NNW,6.9,-,0.03,Rain,Rain,330,2012-11-15 14:15:00
9:55 AM,44.6,44.6,100,30.25,5.0,NNE,11.5,18.4,0.13,Rain,Heavy Rain,20,2012-11-15 14:55:00
10:15 AM,44.6,44.6,100,30.23,7.0,NE,8.1,-,0.02,Rain,Light Rain,40,2012-11-15 15:15:00
10:35 AM,44.6,44.6,100,30.24,10.0,NE,5.8,-,0.02,,Clear,50,2012-11-15 15:35:00
11:15 AM,48.2,48.2,100,30.24,10.0,NNE,5.8,-,N/A,,Clear,30,2012-11-15 16:15:00
11:35 AM,48.2,48.2,100,30.25,10.0,North,3.5,-,N/A,,Clear,350,2012-11-15 16:35:00
11:55 AM,50.0,50.0,100,30.25,10.0,Calm,Calm,-,N/A,Rain,Light Rain,0,2012-11-15 16:55:00
12:15 PM,50.0,50.0,100,30.22,10.0,NNW,5.8,-,N/A,Rain,Light Rain,340,2012-11-15 17:15:00
12:35 PM,50.0,50.0,100,30.22,10.0,NW,9.2,-,0.01,Rain,Rain,310,2012-11-15 17:35:00
12:55 PM,50.0,50.0,100,30.22,10.0,NW,9.2,-,0.01,Rain,Light Rain,310,2012-11-15 17:55:00
1:15 PM,50.0,50.0,100,30.22,10.0,NW,6.9,-,N/A,,Clear,310,2012-11-15 18:15:00
1:35 PM,48.2,48.2,100,30.22,10.0,NW,9.2,-,N/A,,Clear,310,2012-11-15 18:35:00
1:55 PM,46.4,46.4,100,30.22,7.0,NW,9.2,-,N/A,,Clear,310,2012-11-15 18:55:00
2:15 PM,46.4,46.4,100,30.23,7.0,NW,10.4,-,N/A,,Clear,320,2012-11-15 19:15:00
2:35 PM,46.4,46.4,100,30.23,7.0,NW,6.9,-,N/A,,Clear,310,2012-11-15 19:35:00
2:55 PM,44.6,44.6,100,30.23,7.0,NW,8.1,-,N/A,,Clear,310,2012-11-15 19:55:00
3:15 PM,44.6,44.6,100,30.23,5.0,NW,8.1,-,N/A,,Clear,310,2012-11-15 20:15:00
3:35 PM,44.6,44.6,100,30.23,5.0,NNW,9.2,-,N/A,,Clear,330,2012-11-15 20:35:00
3:55 PM,44.6,44.6,100,30.22,5.0,NW,8.1,-,N/A,,Clear,320,2012-11-15 20:55:00
4:15 PM,44.6,44.6,100,30.22,5.0,NNW,8.1,-,N/A,,Clear,330,2012-11-15 21:15:00
4:35 PM,44.6,44.6,100,30.22,5.0,NW,8.1,-,N/A,,Clear,320,2012-11-15 21:35:00
4:55 PM,44.6,44.6,100,30.23,5.0,NW,6.9,-,N/A,,Clear,310,2012-11-15 21:55:00
5:15 PM,44.6,44.6,100,30.23,7.0,North,4.6,-,N/A,,Clear,350,2012-11-15 22:15:00
5:35 PM,44.6,44.6,100,30.23,7.0,North,5.8,-,N/A,,Clear,350,2012-11-15 22:35:00
5:55 PM,44.6,44.6,100,30.23,5.0,North,3.5,-,N/A,,Clear,360,2012-11-15 22:55:00
6:15 PM,44.6,44.6,100,30.24,2.0,North,4.6,-,N/A,,Clear,350,2012-11-15 23:15:00
6:35 PM,44.6,44.6,100,30.24,1.8,North,5.8,-,N/A,,Mist,350,2012-11-15 23:35:00
6:55 PM,44.6,44.6,100,30.24,2.5,North,4.6,-,N/A,,Clear,350,2012-11-15 23:55:00
7:15 PM,44.6,44.6,100,30.24,4.0,NW,3.5,-,N/A,,Clear,320,2012-11-16 00:15:00
7:35 PM,44.6,44.6,100,30.24,4.0,NNW,3.5,-,N/A,,Clear,340,2012-11-16 00:35:00
7:55 PM,44.6,44.6,100,30.25,5.0,NW,4.6,-,N/A,,Clear,320,2012-11-16 00:55:00
8:35 PM,46.4,46.4,100,30.25,5.0,NW,3.5,-,N/A,,Clear,320,2012-11-16 01:35:00
9:15 PM,46.4,46.4,100,30.25,5.0,NW,8.1,-,N/A,,Clear,310,2012-11-16 02:15:00
9:35 PM,46.4,46.4,100,30.25,5.0,NNW,4.6,-,N/A,,Clear,330,2012-11-16 02:35:00
9:55 PM,46.4,46.4,100,30.26,5.0,NNW,6.9,-,N/A,,Clear,330,2012-11-16 02:55:00
10:15 PM,46.4,46.4,100,30.25,7.0,North,4.6,-,N/A,,Clear,350,2012-11-16 03:15:00
10:35 PM,46.4,46.4,100,30.25,7.0,NNW,4.6,-,N/A,,Clear,330,2012-11-16 03:35:00
10:55 PM,46.4,46.4,100,30.25,7.0,NNW,4.6,-,N/A,,Clear,340,2012-11-16 03:55:00
11:15 PM,46.4,46.4,100,30.25,7.0,North,4.6,-,N/A,,Clear,350,2012-11-16 04:15:00
11:35 PM,46.4,46.4,100,30.24,7.0,North,3.5,-,N/A,,Clear,360,2012-11-16 04:35:00
11:55 PM,46.4,46.4,100,30.24,7.0,NNW,3.5,-,N/A,,Clear,330,2012-11-16 04:55:00